Medford, WI

12:00 AM CDT on April 29, 2017 (GMT -0500)
Taylor County

Weather History for KMDZ - November, 2013

Change the Weather History Date:

Wednesday, November 13, 2013

  Actual Average Record
Temperature  
Mean Temperature 30 °F -  
Max Temperature 43 °F 35 °F 64 °F (1999)
Min Temperature 16 °F 21 °F -6 °F (1986)
Degree Days  
Heating Degree Days 36    
Moisture  
Dew Point 20 °F    
Average Humidity 68    
Maximum Humidity 81    
Minimum Humidity 54    
Precipitation  
Precipitation 0.00 in - - ()
Sea Level Pressure  
Sea Level Pressure 30.09 in    
Wind  
Wind Speed 10 mph (SW)    
Max Wind Speed 20 mph    
Max Gust Speed 30 mph    
Visibility 10 miles    
Events      
Averages and records for this station are not official NWS values.
T = Trace of Precipitation, MM = Missing Value Source: NWS Daily Summary

Daily Weather History Graph

Daily Weather History Graph

Search for Another Location

Airport or City:

Trip Planner

Search our weather history database for the weather conditions in past years. The results will help you decide how hot, cold, wet, or windy it might be!

Date:

Astronomy

Nov. 13, 2013 Rise Set
Actual Time 6:56 AM CST 4:33 PM CST
Civil Twilight 6:25 AM CST 5:05 PM CST
Nautical Twilight 5:49 AM CST 5:40 PM CST
Astronomical Twilight 5:14 AM CST 6:15 PM CST
Moon 2:30 PM CST (11/13) 2:39 AM CST (11/13)
Length of Visible Light 10h 40m
Length of Day
9h 37m
Waxing Gibbous, 85% of the Moon is Illuminated
Nov 13
Waxing Gibbous
Nov 17
Full
Nov 25
Last Quarter
Dec 2
New
Dec 9
First Quarter

Hourly Weather History & Observations

Time (CST) Temp. Windchill Dew Point Humidity Pressure Visibility Wind Dir Wind Speed Gust Speed Precip Events Conditions
12:15 AM 17.4 °F 7.1 °F 11.3 °F 77% 30.42 in 10.0 mi WSW 8.1 mph - N/A   Clear
12:35 AM 17.2 °F 8.9 °F 11.3 °F 78% 30.41 in 10.0 mi WSW 5.8 mph - N/A   Clear
12:55 AM 16.7 °F 8.3 °F 11.3 °F 79% 30.40 in 10.0 mi WSW 5.8 mph - N/A   Clear
1:15 AM 16.5 °F 9.4 °F 11.5 °F 81% 30.39 in 10.0 mi SW 4.6 mph - N/A   Clear
1:35 AM 16.5 °F 8.1 °F 11.3 °F 80% 30.39 in 10.0 mi WSW 5.8 mph - N/A   Clear
1:55 AM 16.5 °F 9.4 °F 11.3 °F 80% 30.38 in 10.0 mi SW 4.6 mph - N/A   Clear
2:15 AM 16.3 °F 6.7 °F 11.3 °F 81% 30.37 in 10.0 mi SW 6.9 mph - N/A   Clear
2:35 AM 16.2 °F 6.5 °F 11.3 °F 81% 30.36 in 10.0 mi SW 6.9 mph - N/A   Clear
2:55 AM 16.2 °F 5.5 °F 11.1 °F 81% 30.35 in 10.0 mi SW 8.1 mph - N/A   Clear
3:15 AM 16.3 °F 6.7 °F 11.3 °F 81% 30.35 in 10.0 mi SW 6.9 mph - N/A   Clear
3:35 AM 16.3 °F 7.8 °F 11.1 °F 80% 30.34 in 10.0 mi SW 5.8 mph - N/A   Clear
3:55 AM 16.5 °F 6.9 °F 11.1 °F 79% 30.33 in 10.0 mi SW 6.9 mph - N/A   Clear
4:15 AM 16.5 °F 6.9 °F 11.3 °F 80% 30.32 in 10.0 mi SSW 6.9 mph - N/A   Clear
4:35 AM 16.7 °F 6.2 °F 11.1 °F 79% 30.31 in 10.0 mi SW 8.1 mph - N/A   Clear
4:55 AM 17.1 °F 5.8 °F 11.1 °F 77% 30.29 in 10.0 mi SW 9.2 mph - N/A   Clear
5:15 AM 17.4 °F 6.2 °F 11.1 °F 76% 30.28 in 10.0 mi SSW 9.2 mph - N/A   Clear
5:35 AM 17.6 °F 6.4 °F 11.1 °F 76% 30.27 in 10.0 mi SSW 9.2 mph - N/A   Clear
5:55 AM 17.6 °F 7.3 °F 11.1 °F 76% 30.26 in 10.0 mi SSW 8.1 mph - N/A   Clear
6:15 AM 18.0 °F 8.7 °F 11.3 °F 75% 30.25 in 10.0 mi SSW 6.9 mph - N/A   Clear
6:35 AM 18.3 °F 9.1 °F 11.7 °F 75% 30.23 in 10.0 mi SSW 6.9 mph - N/A   Clear
6:55 AM 18.5 °F 7.5 °F 11.7 °F 75% 30.22 in 10.0 mi SSW 9.2 mph - N/A   Clear
7:35 AM 20.5 °F 8.0 °F 11.5 °F 68% 30.21 in 10.0 mi SSW 12.7 mph - N/A   Clear
7:55 AM 21.4 °F 9.1 °F 12.2 °F 68% 30.20 in 10.0 mi SSW 12.7 mph 18.4 mph N/A   Clear
8:15 AM 22.6 °F 10.1 °F 12.6 °F 65% 30.19 in 10.0 mi SSW 13.8 mph 20.7 mph N/A   Clear
8:35 AM 24.1 °F 11.5 °F 13.5 °F 64% 30.18 in 10.0 mi SSW 15.0 mph 18.4 mph N/A   Clear
8:55 AM 25.3 °F 12.2 °F 14.0 °F 62% 30.17 in 10.0 mi SSW 17.3 mph 20.7 mph N/A   Clear
9:15 AM 26.6 °F 14.7 °F 15.6 °F 63% 30.16 in 10.0 mi SSW 15.0 mph 18.4 mph N/A   Clear
9:35 AM 28.2 °F 16.8 °F 16.3 °F 61% 30.15 in 10.0 mi SSW 15.0 mph - N/A   Clear
9:55 AM 30.2 °F 18.5 °F 17.8 °F 60% 30.14 in 10.0 mi SSW 17.3 mph 24.2 mph N/A   Clear
10:15 AM 31.1 °F 21.4 °F 18.5 °F 60% 30.12 in 10.0 mi SW 12.7 mph 20.7 mph N/A   Clear
10:35 AM 32.0 °F 21.6 °F 19.4 °F 60% 30.12 in 10.0 mi SSW 15.0 mph 25.3 mph N/A   Clear
10:55 AM 33.1 °F 21.9 °F 20.1 °F 59% 30.10 in 10.0 mi SSW 18.4 mph 26.5 mph N/A   Clear
11:15 AM 34.3 °F 23.2 °F 21.6 °F 60% 30.08 in 10.0 mi SSW 19.6 mph 25.3 mph N/A   Clear
11:35 AM 35.6 °F 25.2 °F 22.3 °F 58% 30.06 in 10.0 mi SSW 18.4 mph 24.2 mph N/A   Clear
11:55 AM 37.2 °F 28.7 °F 23.5 °F 58% 30.04 in 10.0 mi SW 13.8 mph 24.2 mph N/A   Clear
12:15 PM 38.7 °F 29.1 °F 24.3 °F 56% 30.02 in 10.0 mi SSW 18.4 mph 27.6 mph N/A   Clear
12:35 PM 39.4 °F 29.8 °F 25.0 °F 56% 30.01 in 10.0 mi SSW 19.6 mph 27.6 mph N/A   Clear
12:55 PM 40.1 °F 31.3 °F 25.5 °F 56% 29.99 in 10.0 mi SW 17.3 mph 27.6 mph N/A   Clear
1:15 PM 41.0 °F 32.2 °F 25.9 °F 55% 29.97 in 10.0 mi SW 18.4 mph 25.3 mph N/A   Clear
1:35 PM 41.7 °F 32.9 °F 26.6 °F 55% 29.96 in 10.0 mi SSW 19.6 mph 29.9 mph N/A   Clear
1:55 PM 42.4 °F 35.0 °F 26.6 °F 54% 29.95 in 10.0 mi SSW 15.0 mph 23.0 mph N/A   Clear
2:15 PM 43.2 °F 35.6 °F 27.3 °F 54% 29.95 in 10.0 mi SW 16.1 mph 24.2 mph N/A   Clear
2:35 PM 43.3 °F 35.5 °F 27.5 °F 54% 29.93 in 10.0 mi SSW 17.3 mph - N/A   Clear
2:55 PM 43.5 °F 36.1 °F 28.0 °F 54% 29.92 in 10.0 mi SSW 16.1 mph 23.0 mph N/A   Clear
3:15 PM 43.0 °F 36.8 °F 28.8 °F 57% 29.92 in 10.0 mi SSW 11.5 mph - N/A   Clear
3:35 PM 42.4 °F 35.3 °F 28.4 °F 58% 29.92 in 10.0 mi SSW 13.8 mph - N/A   Clear
3:55 PM 42.8 °F 36.2 °F 27.5 °F 55% 29.93 in 10.0 mi SW 12.7 mph 19.6 mph N/A   Clear
4:15 PM 41.4 °F 34.3 °F 27.7 °F 58% 29.93 in 10.0 mi SW 12.7 mph 20.7 mph N/A   Clear
4:35 PM 40.1 °F 33.6 °F 27.5 °F 61% 29.92 in 10.0 mi SSW 10.4 mph 17.3 mph N/A   Clear
4:55 PM 39.4 °F 31.1 °F 27.3 °F 62% 29.91 in 10.0 mi SSW 15.0 mph 24.2 mph N/A   Clear
5:15 PM 38.3 °F 30.1 °F 27.3 °F 65% 29.91 in 10.0 mi SSW 13.8 mph - N/A   Clear
5:35 PM 37.4 °F 29.8 °F 26.8 °F 66% 29.92 in 10.0 mi SW 11.5 mph 17.3 mph N/A   Clear
5:55 PM 36.7 °F 29.4 °F 26.8 °F 67% 29.93 in 10.0 mi SW 10.4 mph - N/A   Clear
6:15 PM 36.1 °F 29.3 °F 26.8 °F 69% 29.93 in 10.0 mi SW 9.2 mph - N/A   Clear
6:35 PM 36.0 °F 29.0 °F 26.6 °F 69% 29.93 in 10.0 mi SSW 9.2 mph - N/A   Clear
6:55 PM 35.6 °F 27.1 °F 26.6 °F 70% 29.92 in 10.0 mi SSW 12.7 mph - N/A   Clear
7:15 PM 35.4 °F 27.8 °F 26.4 °F 70% 29.92 in 10.0 mi SW 10.4 mph 18.4 mph N/A   Clear
7:35 PM 35.1 °F 27.4 °F 26.2 °F 70% 29.92 in 10.0 mi SSW 10.4 mph - N/A   Clear
7:55 PM 35.1 °F 26.4 °F 26.2 °F 70% 29.91 in 10.0 mi SSW 12.7 mph - N/A   Clear
8:15 PM 35.1 °F 26.9 °F 25.9 °F 69% 29.91 in 10.0 mi SW 11.5 mph - N/A   Clear
8:35 PM 34.9 °F 27.7 °F 25.7 °F 69% 29.91 in 10.0 mi SW 9.2 mph 16.1 mph N/A   Clear
8:55 PM 35.1 °F 27.9 °F 25.3 °F 68% 29.91 in 10.0 mi SW 9.2 mph - N/A   Clear
9:15 PM 34.7 °F 28.1 °F 25.2 °F 68% 29.91 in 10.0 mi SW 8.1 mph - N/A   Clear
9:35 PM 34.3 °F 27.7 °F 25.2 °F 69% 29.91 in 10.0 mi SSW 8.1 mph - N/A   Clear
9:55 PM 34.0 °F 27.2 °F 25.0 °F 70% 29.90 in 10.0 mi SSW 8.1 mph - N/A   Clear
10:15 PM 33.8 °F 27.7 °F 24.8 °F 70% 29.89 in 10.0 mi SSW 6.9 mph - N/A   Clear
10:35 PM 33.4 °F 26.6 °F 25.2 °F 72% 29.89 in 10.0 mi SW 8.1 mph - N/A   Clear
10:55 PM 33.6 °F 28.4 °F 24.8 °F 70% 29.89 in 10.0 mi SSW 5.8 mph - N/A   Clear
11:15 PM 33.3 °F 27.9 °F 25.0 °F 72% 29.88 in 10.0 mi SW 5.8 mph - N/A   Clear
11:35 PM 33.3 °F 27.1 °F 25.2 °F 72% 29.87 in 10.0 mi SW 6.9 mph - N/A   Clear
11:55 PM 33.4 °F 28.1 °F 25.2 °F 72% 29.87 in 10.0 mi SW 5.8 mph - N/A   Clear